Location: Napa Soda Springs
(38.3907°N, 122.2794°W)
Time: 08:23:17
(UTC+00:00)

SL-16 R/B - Pass Details

Date: 29 October 2020
Orbit: 842 x 846 km, 71.0° (Epoch: 03 December)

Event Time Altitude Azimuth Distance (km) Brightness Sun altitude
Rises 14:00:15 0° 337° (NNW) 3,412 5.0 -7.0°
Reaches altitude 10° 14:02:43 10° 338° (NNW) 2,473 4.3 -6.6°
Maximum altitude 14:08:24 86° 68° (ENE) 852 2.3 -5.5°
Drops below altitude 10° 14:14:04 10° 158° (SSE) 2,459 5.2 -4.4°
Sets 14:16:30 0° 158° (SSE) 3,390 5.9 -3.9°
